Time,TemperatureF,DewpointF,PressureIn,WindDirection,WindDirectionDegrees,WindSpeedMPH,WindSpeedGustMPH,Humidity,HourlyPrecipIn,Conditions,Clouds,dailyrainin,SoftwareType,DateUTC
2013-05-09 00:01:00,60.2,58.8,29.97,SE,144,0.0,0.0,95,0.00,,,0.00,WeatherCatV1.15B25,2013-05-09 04:01:00,
2013-05-09 00:06:00,60.1,58.7,29.97,SE,144,0.0,0.0,95,0.00,,,0.00,WeatherCatV1.15B25,2013-05-09 04:06:00,
2013-05-09 00:11:00,60.0,58.6,29.96,SE,144,0.0,0.0,95,0.00,,,0.00,WeatherCatV1.15B25,2013-05-09 04:11:00,
2013-05-09 00:16:00,59.9,58.5,29.96,SE,144,0.0,0.0,95,0.00,,,0.00,WeatherCatV1.15B25,2013-05-09 04:16:00,
2013-05-09 00:21:00,59.8,58.4,29.96,SE,144,0.0,0.0,95,0.00,,,0.00,WeatherCatV1.15B25,2013-05-09 04:21:00,
2013-05-09 00:26:00,59.7,58.3,29.95,SE,144,0.0,0.0,95,0.00,,,0.00,WeatherCatV1.15B25,2013-05-09 04:26:00,
2013-05-09 00:31:00,59.7,58.3,29.95,SE,144,0.0,0.0,95,0.00,,,0.00,WeatherCatV1.15B25,2013-05-09 04:31:00,
2013-05-09 00:36:00,59.6,58.2,29.95,SE,144,0.0,0.0,95,0.00,,,0.00,WeatherCatV1.15B25,2013-05-09 04:36:00,
2013-05-09 00:38:00,59.6,58.2,29.95,SE,144,0.0,0.0,95,0.00,,,0.00,WeatherCatV1.15B25,2013-05-09 04:38:00,
2013-05-09 00:43:00,59.5,58.1,29.95,SE,144,0.0,0.0,95,0.00,,,0.00,WeatherCatV1.15B25,2013-05-09 04:43:00,
2013-05-09 00:48:00,59.4,58.0,29.94,SE,144,0.0,0.0,95,0.00,,,0.00,WeatherCatV1.15B25,2013-05-09 04:48:00,
2013-05-09 00:53:00,59.3,57.9,29.93,SE,144,8.0,10.0,95,0.00,,,0.00,WeatherCatV1.15B25,2013-05-09 04:53:00,
2013-05-09 00:58:00,59.2,57.8,29.93,SE,144,4.0,8.0,95,0.00,,,0.00,WeatherCatV1.15B25,2013-05-09 04:58:00,
2013-05-09 01:03:00,59.1,57.7,29.94,SE,144,6.0,8.0,95,0.00,,,0.00,WeatherCatV1.15B25,2013-05-09 05:03:00,
2013-05-09 01:08:00,59.1,57.7,29.93,SE,144,7.0,10.0,95,0.00,,,0.00,WeatherCatV1.15B25,2013-05-09 05:08:00,
2013-05-09 01:13:00,59.1,57.7,29.94,SE,144,4.0,8.0,95,0.00,,,0.00,WeatherCatV1.15B25,2013-05-09 05:13:00,
2013-05-09 01:18:00,59.0,57.6,29.93,SE,144,0.0,8.0,95,0.00,,,0.00,WeatherCatV1.15B25,2013-05-09 05:18:00,
2013-05-09 01:23:00,59.0,57.6,29.93,SE,144,0.0,0.0,95,0.00,,,0.00,WeatherCatV1.15B25,2013-05-09 05:23:00,
2013-05-09 01:28:00,59.0,57.6,29.93,SE,144,0.0,4.0,95,0.00,,,0.00,WeatherCatV1.15B25,2013-05-09 05:28:00,
2013-05-09 01:33:00,59.0,57.6,29.93,SE,144,0.0,0.0,95,0.00,,,0.00,WeatherCatV1.15B25,2013-05-09 05:33:00,
2013-05-09 01:38:00,58.8,57.4,29.93,SE,144,4.0,7.0,95,0.00,,,0.00,WeatherCatV1.15B25,2013-05-09 05:38:00,
2013-05-09 01:43:00,58.6,57.2,29.93,SE,144,0.0,4.0,95,0.00,,,0.00,WeatherCatV1.15B25,2013-05-09 05:43:00,
2013-05-09 01:48:00,58.5,57.1,29.93,SE,144,9.0,11.0,95,0.00,,,0.00,WeatherCatV1.15B25,2013-05-09 05:48:00,
2013-05-09 01:53:00,58.4,57.0,29.93,SE,144,8.0,9.0,95,0.00,,,0.00,WeatherCatV1.15B25,2013-05-09 05:53:00,
2013-05-09 01:58:00,58.2,56.8,29.93,SE,144,4.0,7.0,95,0.00,,,0.00,WeatherCatV1.15B25,2013-05-09 05:58:00,
2013-05-09 02:03:00,58.1,56.7,29.92,SE,144,4.0,8.0,95,0.00,,,0.00,WeatherCatV1.15B25,2013-05-09 06:03:00,
2013-05-09 02:08:00,58.0,56.6,29.92,SE,144,6.0,8.0,95,0.00,,,0.00,WeatherCatV1.15B25,2013-05-09 06:08:00,
2013-05-09 02:13:00,57.8,56.4,29.92,SE,144,0.0,2.0,95,0.00,,,0.00,WeatherCatV1.15B25,2013-05-09 06:13:00,
2013-05-09 02:18:00,57.7,56.3,29.92,SE,144,0.0,8.0,95,0.00,,,0.00,WeatherCatV1.15B25,2013-05-09 06:18:00,
2013-05-09 02:23:00,57.6,56.5,29.92,SE,144,5.0,8.0,96,0.00,,,0.00,WeatherCatV1.15B25,2013-05-09 06:23:00,
2013-05-09 02:28:00,57.5,56.4,29.92,SE,144,0.0,7.0,96,0.00,,,0.00,WeatherCatV1.15B25,2013-05-09 06:28:00,
2013-05-09 02:33:00,57.4,56.3,29.92,SE,144,0.0,6.0,96,0.00,,,0.00,WeatherCatV1.15B25,2013-05-09 06:33:00,
2013-05-09 02:38:00,57.2,56.1,29.92,SE,144,0.0,0.0,96,0.00,,,0.00,WeatherCatV1.15B25,2013-05-09 06:38:00,
2013-05-09 02:43:00,57.1,56.0,29.92,SE,144,0.0,0.0,96,0.00,,,0.00,WeatherCatV1.15B25,2013-05-09 06:43:00,
2013-05-09 02:48:00,56.9,55.8,29.92,SE,144,0.0,0.0,96,0.00,,,0.00,WeatherCatV1.15B25,2013-05-09 06:48:00,
2013-05-09 02:53:00,56.8,55.7,29.93,SE,144,0.0,0.0,96,0.00,,,0.00,WeatherCatV1.15B25,2013-05-09 06:53:00,
2013-05-09 02:58:00,56.7,55.6,29.93,SE,144,0.0,0.0,96,0.00,,,0.00,WeatherCatV1.15B25,2013-05-09 06:58:00,
2013-05-09 03:03:00,56.5,55.4,29.92,SE,144,0.0,0.0,96,0.00,,,0.00,WeatherCatV1.15B25,2013-05-09 07:03:00,
2013-05-09 03:08:00,56.4,55.3,29.92,SE,144,4.0,4.0,96,0.00,,,0.00,WeatherCatV1.15B25,2013-05-09 07:08:00,
2013-05-09 03:13:00,56.3,55.2,29.92,SE,144,0.0,0.0,96,0.00,,,0.00,WeatherCatV1.15B25,2013-05-09 07:13:00,
2013-05-09 03:18:00,56.2,55.1,29.92,SE,144,4.0,6.0,96,0.00,,,0.00,WeatherCatV1.15B25,2013-05-09 07:18:00,
2013-05-09 03:23:00,56.1,55.0,29.92,SE,144,2.0,2.0,96,0.00,,,0.00,WeatherCatV1.15B25,2013-05-09 07:23:00,
2013-05-09 03:28:00,55.9,54.8,29.92,SE,144,5.0,7.0,96,0.00,,,0.00,WeatherCatV1.15B25,2013-05-09 07:28:00,
2013-05-09 03:33:00,55.8,55.0,29.91,SE,144,7.0,9.0,97,0.00,,,0.00,WeatherCatV1.15B25,2013-05-09 07:33:00,
2013-05-09 03:38:00,55.6,54.8,29.92,SE,144,6.0,8.0,97,0.00,,,0.00,WeatherCatV1.15B25,2013-05-09 07:38:00,
2013-05-09 03:43:00,55.7,54.9,29.91,SE,144,5.0,6.0,97,0.00,,,0.00,WeatherCatV1.15B25,2013-05-09 07:43:00,
2013-05-09 03:48:00,55.6,54.8,29.91,SE,144,4.0,5.0,97,0.00,,,0.00,WeatherCatV1.15B25,2013-05-09 07:48:00,
2013-05-09 03:53:00,55.5,54.7,29.91,SE,144,4.0,5.0,97,0.00,,,0.00,WeatherCatV1.15B25,2013-05-09 07:53:00,
2013-05-09 03:58:00,55.3,54.2,29.91,SE,144,5.0,5.0,96,0.00,,,0.00,WeatherCatV1.15B25,2013-05-09 07:58:00,
2013-05-09 04:03:00,55.1,54.0,29.91,SE,144,5.0,7.0,96,0.00,,,0.00,WeatherCatV1.15B25,2013-05-09 08:03:00,
2013-05-09 04:08:00,54.9,54.1,29.91,SE,144,0.0,0.0,97,0.00,,,0.00,WeatherCatV1.15B25,2013-05-09 08:08:00,
2013-05-09 04:13:00,54.8,54.0,29.91,SE,144,0.0,4.0,97,0.00,,,0.00,WeatherCatV1.15B25,2013-05-09 08:13:00,
2013-05-09 04:18:00,54.8,54.0,29.92,SE,144,0.0,0.0,97,0.00,,,0.00,WeatherCatV1.15B25,2013-05-09 08:18:00,
2013-05-09 04:23:00,54.6,53.8,29.91,SE,144,0.0,0.0,97,0.00,,,0.00,WeatherCatV1.15B25,2013-05-09 08:23:00,
2013-05-09 04:28:00,54.5,53.7,29.91,SE,144,0.0,6.0,97,0.00,,,0.00,WeatherCatV1.15B25,2013-05-09 08:28:00,
2013-05-09 04:33:00,54.3,53.5,29.91,SE,144,0.0,7.0,97,0.00,,,0.00,WeatherCatV1.15B25,2013-05-09 08:33:00,
2013-05-09 04:38:00,54.4,53.6,29.91,SE,144,0.0,7.0,97,0.00,,,0.00,WeatherCatV1.15B25,2013-05-09 08:38:00,
2013-05-09 04:43:00,54.4,53.6,29.91,SE,144,0.0,0.0,97,0.00,,,0.00,WeatherCatV1.15B25,2013-05-09 08:43:00,
2013-05-09 04:48:00,54.4,53.8,29.91,SE,144,0.0,5.0,98,0.00,,,0.00,WeatherCatV1.15B25,2013-05-09 08:48:00,
2013-05-09 04:53:00,54.5,53.9,29.91,SE,144,0.0,2.0,98,0.00,,,0.00,WeatherCatV1.15B25,2013-05-09 08:53:00,
2013-05-09 04:58:00,54.5,53.7,29.91,SE,144,0.0,0.0,97,0.00,,,0.00,WeatherCatV1.15B25,2013-05-09 08:58:00,
2013-05-09 05:03:00,54.4,53.6,29.91,SE,144,0.0,0.0,97,0.00,,,0.00,WeatherCatV1.15B25,2013-05-09 09:03:00,
2013-05-09 05:08:00,54.4,53.8,29.91,SE,144,0.0,4.0,98,0.00,,,0.00,WeatherCatV1.15B25,2013-05-09 09:08:00,
2013-05-09 05:13:00,54.5,53.9,29.91,SE,144,0.0,0.0,98,0.00,,,0.00,WeatherCatV1.15B25,2013-05-09 09:13:00,
2013-05-09 05:18:00,54.5,53.9,29.91,SE,144,0.0,0.0,98,0.00,,,0.00,WeatherCatV1.15B25,2013-05-09 09:18:00,
2013-05-09 05:23:00,54.6,54.0,29.91,SE,144,0.0,0.0,98,0.00,,,0.00,WeatherCatV1.15B25,2013-05-09 09:23:00,
2013-05-09 05:28:00,54.7,54.1,29.91,SE,144,0.0,0.0,98,0.00,,,0.00,WeatherCatV1.15B25,2013-05-09 09:28:00,
2013-05-09 05:33:00,54.7,54.1,29.91,SE,144,0.0,0.0,98,0.00,,,0.00,WeatherCatV1.15B25,2013-05-09 09:33:00,
2013-05-09 05:38:00,54.8,54.2,29.92,SE,144,0.0,0.0,98,0.00,,,0.00,WeatherCatV1.15B25,2013-05-09 09:38:00,
2013-05-09 05:43:00,54.8,54.2,29.92,SE,144,0.0,0.0,98,0.00,,,0.00,WeatherCatV1.15B25,2013-05-09 09:43:00,
2013-05-09 05:48:00,54.9,54.3,29.92,SE,144,0.0,0.0,98,0.00,,,0.00,WeatherCatV1.15B25,2013-05-09 09:48:00,
2013-05-09 05:53:00,54.9,54.3,29.92,SE,144,0.0,0.0,98,0.00,,,0.00,WeatherCatV1.15B25,2013-05-09 09:53:00,
2013-05-09 05:58:00,55.0,54.4,29.92,SE,144,0.0,0.0,98,0.00,,,0.00,WeatherCatV1.15B25,2013-05-09 09:58:00,
2013-05-09 06:03:00,55.0,54.4,29.92,SE,144,0.0,0.0,98,0.00,,,0.00,WeatherCatV1.15B25,2013-05-09 10:03:00,
2013-05-09 06:08:00,55.0,54.2,29.92,SE,144,0.0,0.0,97,0.00,,,0.00,WeatherCatV1.15B25,2013-05-09 10:08:00,
2013-05-09 06:13:00,54.9,54.1,29.92,SE,144,0.0,0.0,97,0.00,,,0.00,WeatherCatV1.15B25,2013-05-09 10:13:00,
2013-05-09 06:18:00,54.9,54.1,29.92,SE,144,0.0,0.0,97,0.00,,,0.00,WeatherCatV1.15B25,2013-05-09 10:18:00,
2013-05-09 06:23:00,54.8,54.0,29.92,SE,144,0.0,0.0,97,0.00,,,0.00,WeatherCatV1.15B25,2013-05-09 10:23:00,
2013-05-09 06:28:00,54.8,54.0,29.92,SE,144,0.0,0.0,97,0.00,,,0.00,WeatherCatV1.15B25,2013-05-09 10:28:00,
2013-05-09 06:33:00,54.8,54.0,29.92,SE,144,0.0,0.0,97,0.00,,,0.00,WeatherCatV1.15B25,2013-05-09 10:33:00,
2013-05-09 06:38:00,54.8,54.0,29.93,SE,144,0.0,0.0,97,0.00,,,0.00,WeatherCatV1.15B25,2013-05-09 10:38:00,
2013-05-09 06:43:00,54.8,54.0,29.92,SE,144,0.0,0.0,97,0.00,,,0.00,WeatherCatV1.15B25,2013-05-09 10:43:00,
2013-05-09 06:48:00,55.0,54.2,29.92,SE,144,0.0,0.0,97,0.00,,,0.00,WeatherCatV1.15B25,2013-05-09 10:48:00,
2013-05-09 06:53:00,55.2,54.4,29.92,SE,144,0.0,0.0,97,0.00,,,0.00,WeatherCatV1.15B25,2013-05-09 10:53:00,
2013-05-09 06:58:00,55.3,54.5,29.92,SE,144,0.0,0.0,97,0.00,,,0.00,WeatherCatV1.15B25,2013-05-09 10:58:00,
2013-05-09 07:03:00,55.5,54.4,29.92,SE,144,0.0,0.0,96,0.00,,,0.00,WeatherCatV1.15B25,2013-05-09 11:03:00,
2013-05-09 07:08:00,55.8,55.0,29.92,SE,144,0.0,0.0,97,0.00,,,0.00,WeatherCatV1.15B25,2013-05-09 11:08:00,
2013-05-09 07:13:00,56.2,55.1,29.92,SE,144,0.0,0.0,96,0.00,,,0.00,WeatherCatV1.15B25,2013-05-09 11:13:00,
2013-05-09 07:18:00,56.6,54.9,29.92,SE,144,0.0,0.0,94,0.00,,,0.00,WeatherCatV1.15B25,2013-05-09 11:18:00,
2013-05-09 07:23:00,56.8,54.8,29.92,SE,144,0.0,0.0,93,0.00,,,0.00,WeatherCatV1.15B25,2013-05-09 11:23:00,
2013-05-09 07:28:00,57.0,55.0,29.92,SE,144,0.0,0.0,93,0.00,,,0.00,WeatherCatV1.15B25,2013-05-09 11:28:00,
2013-05-09 07:33:00,56.9,54.6,29.92,SE,144,0.0,0.0,92,0.00,,,0.00,WeatherCatV1.15B25,2013-05-09 11:33:00,
2013-05-09 07:38:00,56.8,54.8,29.92,SE,144,0.0,0.0,93,0.00,,,0.00,WeatherCatV1.15B25,2013-05-09 11:38:00,
2013-05-09 07:43:00,56.9,54.9,29.93,SE,144,0.0,0.0,93,0.00,,,0.00,WeatherCatV1.15B25,2013-05-09 11:43:00,
2013-05-09 07:48:00,57.0,54.7,29.93,SE,144,0.0,0.0,92,0.00,,,0.00,WeatherCatV1.15B25,2013-05-09 11:48:00,
2013-05-09 07:53:00,57.1,54.2,29.92,SE,144,6.0,6.0,90,0.00,,,0.00,WeatherCatV1.15B25,2013-05-09 11:53:00,
2013-05-09 07:58:00,57.2,54.6,29.92,SE,144,0.0,0.0,91,0.00,,,0.00,WeatherCatV1.15B25,2013-05-09 11:58:00,
2013-05-09 08:03:00,57.5,54.9,29.93,SE,144,0.0,0.0,91,0.00,,,0.00,WeatherCatV1.15B25,2013-05-09 12:03:00,
2013-05-09 08:08:00,57.8,54.6,29.92,SE,144,0.0,0.0,89,0.00,,,0.00,WeatherCatV1.15B25,2013-05-09 12:08:00,
2013-05-09 08:13:00,58.0,54.5,29.92,SE,144,0.0,0.0,88,0.00,,,0.00,WeatherCatV1.15B25,2013-05-09 12:13:00,
2013-05-09 08:18:00,58.0,54.5,29.92,SE,144,0.0,0.0,88,0.00,,,0.00,WeatherCatV1.15B25,2013-05-09 12:18:00,
2013-05-09 08:23:00,58.0,54.8,29.92,SE,144,0.0,0.0,89,0.00,,,0.00,WeatherCatV1.15B25,2013-05-09 12:23:00,
2013-05-09 08:28:00,58.1,54.6,29.92,SE,144,0.0,0.0,88,0.00,,,0.00,WeatherCatV1.15B25,2013-05-09 12:28:00,
2013-05-09 08:33:00,58.2,54.7,29.92,SE,144,5.0,8.0,88,0.00,,,0.00,WeatherCatV1.15B25,2013-05-09 12:33:00,
2013-05-09 08:38:00,58.4,54.5,29.92,SE,144,4.0,9.0,87,0.00,,,0.00,WeatherCatV1.15B25,2013-05-09 12:38:00,
2013-05-09 08:43:00,58.7,54.8,29.92,SE,144,0.0,5.0,87,0.00,,,0.00,WeatherCatV1.15B25,2013-05-09 12:43:00,
2013-05-09 08:48:00,59.0,55.8,29.92,SE,144,0.0,4.0,89,0.00,,,0.00,WeatherCatV1.15B25,2013-05-09 12:48:00,
2013-05-09 08:53:00,59.1,55.2,29.92,SE,144,0.0,0.0,87,0.00,,,0.00,WeatherCatV1.15B25,2013-05-09 12:53:00,
2013-05-09 08:58:00,59.6,55.1,29.92,SE,144,6.0,7.0,85,0.00,,,0.00,WeatherCatV1.15B25,2013-05-09 12:58:00,
2013-05-09 09:03:00,60.1,55.6,29.92,SE,144,0.0,5.0,85,0.00,,,0.00,WeatherCatV1.15B25,2013-05-09 13:03:00,
2013-05-09 09:08:00,60.4,55.2,29.92,SE,144,2.0,7.0,83,0.00,,,0.00,WeatherCatV1.15B25,2013-05-09 13:08:00,
2013-05-09 09:12:00,60.5,55.6,29.92,SE,144,0.0,5.0,84,0.00,,,0.00,WeatherCatV1.15B25,2013-05-09 13:12:00,
2013-05-09 09:17:00,60.8,55.6,29.92,SE,144,5.0,8.0,83,0.00,,,0.00,WeatherCatV1.15B25,2013-05-09 13:17:00,
2013-05-09 09:22:00,61.3,55.4,29.92,SE,144,0.0,8.0,81,0.00,,,0.00,WeatherCatV1.15B25,2013-05-09 13:22:00,
2013-05-09 09:27:00,61.7,55.5,29.91,SE,144,4.0,6.0,80,0.00,,,0.00,WeatherCatV1.15B25,2013-05-09 13:27:00,
2013-05-09 09:32:00,61.6,55.7,29.91,SE,144,5.0,6.0,81,0.00,,,0.00,WeatherCatV1.15B25,2013-05-09 13:32:00,
2013-05-09 09:37:00,61.4,56.5,29.91,SE,144,5.0,8.0,84,0.00,,,0.00,WeatherCatV1.15B25,2013-05-09 13:37:00,
2013-05-09 09:42:00,60.8,55.9,29.91,SE,144,5.0,6.0,84,0.00,,,0.00,WeatherCatV1.15B25,2013-05-09 13:42:00,
2013-05-09 09:47:00,60.7,55.8,29.91,SE,144,5.0,5.0,84,0.00,,,0.00,WeatherCatV1.15B25,2013-05-09 13:47:00,
2013-05-09 09:52:00,60.6,56.7,29.91,SE,144,7.0,7.0,87,0.00,,,0.00,WeatherCatV1.15B25,2013-05-09 13:52:00,
2013-05-09 09:57:00,60.5,56.6,29.91,SE,144,8.0,9.0,87,0.00,,,0.00,WeatherCatV1.15B25,2013-05-09 13:57:00,
2013-05-09 10:02:00,60.0,56.1,29.91,SE,144,8.0,9.0,87,0.00,,,0.00,WeatherCatV1.15B25,2013-05-09 14:02:00,
2013-05-09 10:07:00,59.6,55.7,29.91,SE,144,5.0,7.0,87,0.00,,,0.00,WeatherCatV1.15B25,2013-05-09 14:07:00,
2013-05-09 10:12:00,59.5,55.9,29.91,SE,144,5.0,6.0,88,0.00,,,0.00,WeatherCatV1.15B25,2013-05-09 14:12:00,
2013-05-09 10:17:00,59.6,56.0,29.91,SE,144,2.0,6.0,88,0.00,,,0.00,WeatherCatV1.15B25,2013-05-09 14:17:00,
2013-05-09 10:22:00,59.8,55.9,29.91,SE,144,6.0,7.0,87,0.00,,,0.00,WeatherCatV1.15B25,2013-05-09 14:22:00,
2013-05-09 10:27:00,60.0,56.1,29.91,SE,144,5.0,5.0,87,0.00,,,0.00,WeatherCatV1.15B25,2013-05-09 14:27:00,
2013-05-09 10:32:00,60.5,56.6,29.91,SE,144,5.0,5.0,87,0.00,,,0.00,WeatherCatV1.15B25,2013-05-09 14:32:00,
2013-05-09 10:37:00,60.7,56.5,29.91,SE,144,2.0,6.0,86,0.00,,,0.00,WeatherCatV1.15B25,2013-05-09 14:37:00,
2013-05-09 10:42:00,60.7,55.8,29.90,SE,144,0.0,0.0,84,0.00,,,0.00,WeatherCatV1.15B25,2013-05-09 14:42:00,
2013-05-09 10:47:00,60.7,55.8,29.90,SE,144,0.0,0.0,84,0.00,,,0.00,WeatherCatV1.15B25,2013-05-09 14:47:00,
2013-05-09 10:52:00,60.9,56.4,29.90,SE,144,4.0,5.0,85,0.00,,,0.00,WeatherCatV1.15B25,2013-05-09 14:52:00,
2013-05-09 10:57:00,61.0,55.8,29.90,SE,144,4.0,5.0,83,0.00,,,0.00,WeatherCatV1.15B25,2013-05-09 14:57:00,
2013-05-09 11:02:00,61.2,56.3,29.90,SE,144,5.0,5.0,84,0.00,,,0.00,WeatherCatV1.15B25,2013-05-09 15:02:00,
2013-05-09 11:07:00,61.6,56.7,29.90,SE,144,5.0,6.0,84,0.00,,,0.00,WeatherCatV1.15B25,2013-05-09 15:07:00,
2013-05-09 11:12:00,61.8,56.6,29.90,SE,144,6.0,7.0,83,0.00,,,0.00,WeatherCatV1.15B25,2013-05-09 15:12:00,
2013-05-09 11:17:00,61.9,57.0,29.90,SE,144,5.0,6.0,84,0.00,,,0.00,WeatherCatV1.15B25,2013-05-09 15:17:00,
2013-05-09 11:22:00,62.1,57.2,29.90,SE,144,4.0,5.0,84,0.00,,,0.00,WeatherCatV1.15B25,2013-05-09 15:22:00,
2013-05-09 11:27:00,62.3,57.1,29.90,SE,144,0.0,2.0,83,0.00,,,0.00,WeatherCatV1.15B25,2013-05-09 15:27:00,
2013-05-09 11:32:00,62.6,58.0,29.90,SE,144,2.0,5.0,85,0.00,,,0.00,WeatherCatV1.15B25,2013-05-09 15:32:00,
2013-05-09 11:37:00,63.0,57.4,29.90,SE,144,6.0,6.0,82,0.00,,,0.00,WeatherCatV1.15B25,2013-05-09 15:37:00,
2013-05-09 11:42:00,63.1,57.2,29.90,SE,144,8.0,8.0,81,0.00,,,0.00,WeatherCatV1.15B25,2013-05-09 15:42:00,
2013-05-09 11:47:00,63.0,57.1,29.89,SE,144,5.0,6.0,81,0.00,,,0.00,WeatherCatV1.15B25,2013-05-09 15:47:00,
2013-05-09 11:52:00,63.1,56.1,29.89,SE,144,4.0,7.0,78,0.00,,,0.00,WeatherCatV1.15B25,2013-05-09 15:52:00,
2013-05-09 11:57:00,63.4,56.4,29.89,SE,144,5.0,6.0,78,0.00,,,0.00,WeatherCatV1.15B25,2013-05-09 15:57:00,
2013-05-09 12:02:00,63.6,55.2,29.89,SE,144,0.0,6.0,74,0.00,,,0.00,WeatherCatV1.15B25,2013-05-09 16:02:00,
2013-05-09 12:07:00,64.1,54.5,29.89,SE,144,2.0,5.0,71,0.00,,,0.00,WeatherCatV1.15B25,2013-05-09 16:07:00,
2013-05-09 12:12:00,64.9,53.7,29.89,SE,144,7.0,9.0,67,0.00,,,0.00,WeatherCatV1.15B25,2013-05-09 16:12:00,
2013-05-09 12:17:00,65.6,54.3,29.89,SE,144,6.0,9.0,67,0.00,,,0.00,WeatherCatV1.15B25,2013-05-09 16:17:00,
2013-05-09 12:22:00,66.3,53.7,29.89,SE,134,15.0,15.0,64,0.00,,,0.00,WeatherCatV1.15B25,2013-05-09 16:22:00,
2013-05-09 12:27:00,66.2,53.2,29.89,SE,132,17.0,17.0,63,0.00,,,0.00,WeatherCatV1.15B25,2013-05-09 16:27:00,
2013-05-09 12:32:00,66.2,53.7,29.89,SE,145,9.0,9.0,64,0.00,,,0.00,WeatherCatV1.15B25,2013-05-09 16:32:00,
2013-05-09 12:37:00,66.6,53.6,29.89,SE,142,2.0,9.0,63,0.00,,,0.00,WeatherCatV1.15B25,2013-05-09 16:37:00,
2013-05-09 12:42:00,66.8,52.9,29.89,SE,146,9.0,12.0,61,0.00,,,0.00,WeatherCatV1.15B25,2013-05-09 16:42:00,
2013-05-09 12:47:00,66.6,52.3,29.89,SE,144,4.0,13.0,60,0.00,,,0.00,WeatherCatV1.15B25,2013-05-09 16:47:00,
2013-05-09 12:52:00,66.6,52.7,29.88,SE,144,0.0,1.0,61,0.00,,,0.00,WeatherCatV1.15B25,2013-05-09 16:52:00,
2013-05-09 12:57:00,66.7,51.9,29.88,SSE,167,0.0,8.0,59,0.00,,,0.00,WeatherCatV1.15B25,2013-05-09 16:57:00,
2013-05-09 13:02:00,66.8,52.9,29.88,SSW,194,8.0,8.0,61,0.00,,,0.00,WeatherCatV1.15B25,2013-05-09 17:02:00,
2013-05-09 13:07:00,66.8,52.5,29.88,SSE,157,0.0,6.0,60,0.00,,,0.00,WeatherCatV1.15B25,2013-05-09 17:07:00,
2013-05-09 13:12:00,66.9,52.6,29.88,SSE,157,0.0,9.0,60,0.00,,,0.00,WeatherCatV1.15B25,2013-05-09 17:12:00,
2013-05-09 13:17:00,66.8,51.5,29.88,SE,144,8.0,11.0,58,0.00,,,0.00,WeatherCatV1.15B25,2013-05-09 17:17:00,
2013-05-09 13:22:00,66.9,51.6,29.88,SE,140,0.0,12.0,58,0.00,,,0.00,WeatherCatV1.15B25,2013-05-09 17:22:00,
2013-05-09 13:27:00,67.1,52.3,29.88,SSE,159,0.0,9.0,59,0.00,,,0.00,WeatherCatV1.15B25,2013-05-09 17:27:00,
2013-05-09 13:32:00,67.4,52.1,29.87,SSE,161,0.0,7.0,58,0.00,,,0.00,WeatherCatV1.15B25,2013-05-09 17:32:00,
2013-05-09 13:37:00,67.5,53.1,29.87,SE,146,4.0,11.0,60,0.00,,,0.00,WeatherCatV1.15B25,2013-05-09 17:37:00,
2013-05-09 13:42:00,67.6,52.8,29.87,SSE,148,8.0,13.0,59,0.00,,,0.00,WeatherCatV1.15B25,2013-05-09 17:42:00,
2013-05-09 13:47:00,67.4,53.0,29.87,SSE,150,0.0,4.0,60,0.00,,,0.00,WeatherCatV1.15B25,2013-05-09 17:47:00,
2013-05-09 13:52:00,67.3,52.9,29.87,SE,132,12.0,14.0,60,0.00,,,0.00,WeatherCatV1.15B25,2013-05-09 17:52:00,
2013-05-09 13:57:00,66.7,52.4,29.87,SE,132,13.0,16.0,60,0.00,,,0.00,WeatherCatV1.15B25,2013-05-09 17:57:00,
2013-05-09 14:02:00,66.3,53.7,29.87,SE,129,0.0,6.0,64,0.00,,,0.00,WeatherCatV1.15B25,2013-05-09 18:02:00,
2013-05-09 14:07:00,66.3,54.2,29.87,SE,138,8.0,9.0,65,0.00,,,0.00,WeatherCatV1.15B25,2013-05-09 18:07:00,
2013-05-09 14:12:00,66.3,54.2,29.86,SE,142,6.0,8.0,65,0.00,,,0.00,WeatherCatV1.15B25,2013-05-09 18:12:00,
2013-05-09 14:17:00,66.5,53.1,29.86,South,186,0.0,3.0,62,0.00,,,0.00,WeatherCatV1.15B25,2013-05-09 18:17:00,
2013-05-09 14:22:00,66.7,52.4,29.86,South,186,0.0,7.0,60,0.00,,,0.00,WeatherCatV1.15B25,2013-05-09 18:22:00,
2013-05-09 14:27:00,66.6,53.2,29.86,SSE,152,9.0,12.0,62,0.00,,,0.00,WeatherCatV1.15B25,2013-05-09 18:27:00,
2013-05-09 14:32:00,66.6,53.6,29.86,SSW,204,1.0,11.0,63,0.00,,,0.00,WeatherCatV1.15B25,2013-05-09 18:32:00,
2013-05-09 14:37:00,66.7,53.7,29.86,SSW,208,2.0,5.0,63,0.00,,,0.00,WeatherCatV1.15B25,2013-05-09 18:37:00,
2013-05-09 14:42:00,66.7,54.1,29.86,SSW,202,5.0,6.0,64,0.00,,,0.00,WeatherCatV1.15B25,2013-05-09 18:42:00,
2013-05-09 14:47:00,66.4,54.7,29.86,SE,144,6.0,6.0,66,0.00,,,0.00,WeatherCatV1.15B25,2013-05-09 18:47:00,
2013-05-09 14:52:00,66.5,53.5,29.86,SSE,149,1.0,7.0,63,0.00,,,0.00,WeatherCatV1.15B25,2013-05-09 18:52:00,
2013-05-09 14:57:00,66.6,52.7,29.85,SE,146,2.0,6.0,61,0.00,,,0.00,WeatherCatV1.15B25,2013-05-09 18:57:00,
2013-05-09 15:02:00,67.0,52.6,29.86,SSE,148,0.0,2.0,60,0.00,,,0.00,WeatherCatV1.15B25,2013-05-09 19:02:00,
2013-05-09 15:07:00,67.3,52.9,29.85,SSE,148,0.0,2.0,60,0.00,,,0.00,WeatherCatV1.15B25,2013-05-09 19:07:00,
2013-05-09 15:12:00,67.7,51.4,29.85,SSW,197,0.0,2.0,56,0.00,,,0.00,WeatherCatV1.15B25,2013-05-09 19:12:00,
2013-05-09 15:17:00,67.8,52.5,29.85,SSW,197,5.0,5.0,58,0.00,,,0.00,WeatherCatV1.15B25,2013-05-09 19:17:00,
2013-05-09 15:22:00,68.1,51.8,29.85,SSW,207,6.0,8.0,56,0.00,,,0.00,WeatherCatV1.15B25,2013-05-09 19:22:00,
2013-05-09 15:27:00,68.3,52.9,29.85,SSW,209,3.0,5.0,58,0.00,,,0.00,WeatherCatV1.15B25,2013-05-09 19:27:00,
2013-05-09 15:32:00,68.5,53.6,29.84,SSW,209,4.0,5.0,59,0.00,,,0.00,WeatherCatV1.15B25,2013-05-09 19:32:00,
2013-05-09 15:37:00,68.6,52.7,29.84,WSW,242,3.0,8.0,57,0.00,,,0.00,WeatherCatV1.15B25,2013-05-09 19:37:00,
2013-05-09 15:42:00,68.6,52.7,29.84,WSW,242,3.0,4.0,57,0.00,,,0.00,WeatherCatV1.15B25,2013-05-09 19:42:00,
2013-05-09 15:47:00,68.5,53.1,29.84,WSW,242,2.0,3.0,58,0.00,,,0.00,WeatherCatV1.15B25,2013-05-09 19:47:00,
2013-05-09 15:52:00,68.6,52.3,29.84,WSW,242,4.0,5.0,56,0.00,,,0.00,WeatherCatV1.15B25,2013-05-09 19:52:00,
2013-05-09 15:57:00,68.6,53.7,29.84,WSW,242,6.0,6.0,59,0.00,,,0.00,WeatherCatV1.15B25,2013-05-09 19:57:00,
2013-05-09 16:02:00,68.3,56.1,29.84,WSW,242,4.0,5.0,65,0.00,,,0.00,WeatherCatV1.15B25,2013-05-09 20:02:00,
2013-05-09 16:07:00,67.9,55.3,29.84,WSW,242,6.0,6.0,64,0.00,,,0.00,WeatherCatV1.15B25,2013-05-09 20:07:00,
2013-05-09 16:12:00,67.6,55.8,29.84,WSW,242,5.0,7.0,66,0.00,,,0.00,WeatherCatV1.15B25,2013-05-09 20:12:00,
2013-05-09 16:17:00,67.6,55.0,29.83,WSW,242,4.0,4.0,64,0.00,,,0.00,WeatherCatV1.15B25,2013-05-09 20:17:00,
2013-05-09 16:22:00,67.4,52.6,29.83,WSW,242,0.0,3.0,59,0.00,,,0.00,WeatherCatV1.15B25,2013-05-09 20:22:00,
2013-05-09 16:27:00,67.6,55.8,29.83,WSW,242,2.0,4.0,66,0.00,,,0.00,WeatherCatV1.15B25,2013-05-09 20:27:00,
2013-05-09 16:32:00,67.6,57.1,29.83,WSW,242,1.0,4.0,69,0.00,,,0.00,WeatherCatV1.15B25,2013-05-09 20:32:00,
2013-05-09 16:37:00,67.6,55.4,29.83,WSW,242,4.0,7.0,65,0.00,,,0.00,WeatherCatV1.15B25,2013-05-09 20:37:00,
2013-05-09 16:42:00,67.5,56.1,29.83,WSW,246,12.0,13.0,67,0.00,,,0.00,WeatherCatV1.15B25,2013-05-09 20:42:00,
2013-05-09 16:47:00,67.2,57.5,29.83,WSW,251,13.0,17.0,71,0.00,,,0.00,WeatherCatV1.15B25,2013-05-09 20:47:00,
2013-05-09 16:52:00,66.8,58.2,29.83,WSW,250,14.0,15.0,74,0.00,,,0.00,WeatherCatV1.15B25,2013-05-09 20:52:00,
2013-05-09 16:57:00,66.6,58.4,29.83,WSW,257,13.0,15.0,75,0.00,,,0.00,WeatherCatV1.15B25,2013-05-09 20:57:00,
2013-05-09 17:02:00,66.7,58.5,29.83,WSW,254,17.0,17.0,75,0.00,,,0.00,WeatherCatV1.15B25,2013-05-09 21:02:00,
2013-05-09 17:07:00,66.8,58.6,29.84,WSW,255,17.0,18.0,75,0.00,,,0.00,WeatherCatV1.15B25,2013-05-09 21:07:00,
2013-05-09 17:12:00,66.4,58.6,29.84,WSW,250,14.0,15.0,76,0.00,,,0.00,WeatherCatV1.15B25,2013-05-09 21:12:00,
2013-05-09 17:17:00,65.9,58.5,29.84,WSW,251,13.0,14.0,77,0.00,,,0.00,WeatherCatV1.15B25,2013-05-09 21:17:00,
2013-05-09 17:22:00,65.5,57.7,29.84,West,259,13.0,18.0,76,0.00,,,0.00,WeatherCatV1.15B25,2013-05-09 21:22:00,
2013-05-09 17:27:00,65.1,57.7,29.84,West,263,13.0,15.0,77,0.00,,,0.00,WeatherCatV1.15B25,2013-05-09 21:27:00,
2013-05-09 17:32:00,64.9,56.8,29.84,West,259,10.0,13.0,75,0.00,,,0.00,WeatherCatV1.15B25,2013-05-09 21:32:00,
2013-05-09 17:37:00,64.7,56.2,29.84,West,261,8.0,11.0,74,0.00,,,0.00,WeatherCatV1.15B25,2013-05-09 21:37:00,
2013-05-09 17:42:00,64.5,55.6,29.84,West,261,7.0,11.0,73,0.00,,,0.00,WeatherCatV1.15B25,2013-05-09 21:42:00,
2013-05-09 17:47:00,64.5,55.3,29.84,West,261,8.0,11.0,72,0.00,,,0.00,WeatherCatV1.15B25,2013-05-09 21:47:00,
2013-05-09 17:52:00,64.7,56.2,29.84,West,261,7.0,10.0,74,0.00,,,0.00,WeatherCatV1.15B25,2013-05-09 21:52:00,
2013-05-09 17:57:00,64.9,56.0,29.84,West,261,8.0,10.0,73,0.00,,,0.00,WeatherCatV1.15B25,2013-05-09 21:57:00,
2013-05-09 18:02:00,64.8,56.3,29.84,West,261,8.0,11.0,74,0.00,,,0.00,WeatherCatV1.15B25,2013-05-09 22:02:00,
2013-05-09 18:07:00,64.4,55.2,29.84,West,261,5.0,8.0,72,0.00,,,0.00,WeatherCatV1.15B25,2013-05-09 22:07:00,
2013-05-09 18:12:00,64.2,55.7,29.84,West,261,5.0,7.0,74,0.00,,,0.00,WeatherCatV1.15B25,2013-05-09 22:12:00,
2013-05-09 18:17:00,64.0,55.5,29.84,WSW,257,6.0,8.0,74,0.00,,,0.00,WeatherCatV1.15B25,2013-05-09 22:17:00,
2013-05-09 18:22:00,63.7,54.9,29.84,WSW,257,5.0,6.0,73,0.00,,,0.00,WeatherCatV1.15B25,2013-05-09 22:22:00,
2013-05-09 18:27:00,63.6,55.2,29.84,WSW,257,2.0,6.0,74,0.00,,,0.00,WeatherCatV1.15B25,2013-05-09 22:27:00,
2013-05-09 18:32:00,63.4,55.0,29.84,WSW,257,0.0,0.0,74,0.00,,,0.00,WeatherCatV1.15B25,2013-05-09 22:32:00,
2013-05-09 18:37:00,63.3,54.9,29.84,WSW,257,5.0,5.0,74,0.00,,,0.00,WeatherCatV1.15B25,2013-05-09 22:37:00,
2013-05-09 18:42:00,63.2,54.8,29.84,WSW,257,0.0,2.0,74,0.00,,,0.00,WeatherCatV1.15B25,2013-05-09 22:42:00,
2013-05-09 18:47:00,63.2,55.1,29.84,WSW,257,4.0,5.0,75,0.00,,,0.00,WeatherCatV1.15B25,2013-05-09 22:47:00,
2013-05-09 18:52:00,63.2,55.5,29.84,WSW,257,4.0,4.0,76,0.00,,,0.00,WeatherCatV1.15B25,2013-05-09 22:52:00,
2013-05-09 18:57:00,63.1,55.8,29.84,WSW,257,2.0,3.0,77,0.00,,,0.00,WeatherCatV1.15B25,2013-05-09 22:57:00,
2013-05-09 19:02:00,63.1,55.4,29.85,WSW,257,0.0,2.0,76,0.00,,,0.00,WeatherCatV1.15B25,2013-05-09 23:02:00,
2013-05-09 19:07:00,63.1,55.4,29.85,WSW,257,4.0,4.0,76,0.00,,,0.00,WeatherCatV1.15B25,2013-05-09 23:07:00,
2013-05-09 19:12:00,63.0,55.7,29.85,WSW,257,0.0,0.0,77,0.00,,,0.00,WeatherCatV1.15B25,2013-05-09 23:12:00,
2013-05-09 19:17:00,62.9,55.2,29.85,WSW,257,0.0,0.0,76,0.00,,,0.00,WeatherCatV1.15B25,2013-05-09 23:17:00,
2013-05-09 19:22:00,62.8,55.5,29.85,WSW,257,0.0,0.0,77,0.00,,,0.00,WeatherCatV1.15B25,2013-05-09 23:22:00,
2013-05-09 19:27:00,62.6,56.3,29.85,WSW,257,2.0,3.0,80,0.00,,,0.00,WeatherCatV1.15B25,2013-05-09 23:27:00,
2013-05-09 19:32:00,62.1,55.9,29.86,WSW,257,4.0,4.0,80,0.00,,,0.00,WeatherCatV1.15B25,2013-05-09 23:32:00,
2013-05-09 19:37:00,61.7,55.8,29.86,WSW,257,2.0,3.0,81,0.00,,,0.00,WeatherCatV1.15B25,2013-05-09 23:37:00,
2013-05-09 19:42:00,61.5,55.6,29.86,WSW,257,0.0,0.0,81,0.00,,,0.00,WeatherCatV1.15B25,2013-05-09 23:42:00,
2013-05-09 19:47:00,61.4,55.5,29.86,WSW,257,0.0,0.0,81,0.00,,,0.00,WeatherCatV1.15B25,2013-05-09 23:47:00,
2013-05-09 19:52:00,61.3,56.1,29.86,WSW,257,0.0,0.0,83,0.00,,,0.00,WeatherCatV1.15B25,2013-05-09 23:52:00,
2013-05-09 19:57:00,61.1,55.9,29.86,WSW,257,0.0,0.0,83,0.00,,,0.00,WeatherCatV1.15B25,2013-05-09 23:57:00,
2013-05-09 20:02:00,60.8,55.9,29.86,WSW,257,0.0,0.0,84,0.00,,,0.00,WeatherCatV1.15B25,2013-05-10 00:02:00,
2013-05-09 20:07:00,60.4,56.2,29.86,WSW,257,0.0,0.0,86,0.00,,,0.00,WeatherCatV1.15B25,2013-05-10 00:07:00,
2013-05-09 20:12:00,60.2,56.0,29.86,WSW,257,0.0,0.0,86,0.00,,,0.00,WeatherCatV1.15B25,2013-05-10 00:12:00,
2013-05-09 20:17:00,60.0,55.8,29.87,WSW,257,0.0,0.0,86,0.00,,,0.00,WeatherCatV1.15B25,2013-05-10 00:17:00,
2013-05-09 20:22:00,59.9,56.0,29.87,WSW,257,0.0,0.0,87,0.00,,,0.00,WeatherCatV1.15B25,2013-05-10 00:22:00,
2013-05-09 20:27:00,59.6,55.7,29.87,WSW,257,0.0,0.0,87,0.00,,,0.00,WeatherCatV1.15B25,2013-05-10 00:27:00,
2013-05-09 20:32:00,59.4,55.5,29.87,WSW,257,0.0,0.0,87,0.00,,,0.00,WeatherCatV1.15B25,2013-05-10 00:32:00,
2013-05-09 20:37:00,59.2,55.6,29.87,WSW,257,0.0,0.0,88,0.00,,,0.00,WeatherCatV1.15B25,2013-05-10 00:37:00,
2013-05-09 20:42:00,59.0,55.4,29.87,WSW,257,0.0,0.0,88,0.00,,,0.00,WeatherCatV1.15B25,2013-05-10 00:42:00,
2013-05-09 20:47:00,59.0,55.4,29.87,WSW,257,0.0,0.0,88,0.00,,,0.00,WeatherCatV1.15B25,2013-05-10 00:47:00,
2013-05-09 20:52:00,59.0,55.8,29.87,WSW,257,4.0,5.0,89,0.00,,,0.00,WeatherCatV1.15B25,2013-05-10 00:52:00,
2013-05-09 20:57:00,59.0,55.8,29.88,WSW,257,4.0,4.0,89,0.00,,,0.00,WeatherCatV1.15B25,2013-05-10 00:57:00,
2013-05-09 21:02:00,58.8,55.3,29.88,WSW,257,2.0,4.0,88,0.00,,,0.00,WeatherCatV1.15B25,2013-05-10 01:02:00,
2013-05-09 21:07:00,58.7,55.5,29.88,WSW,257,3.0,3.0,89,0.00,,,0.00,WeatherCatV1.15B25,2013-05-10 01:07:00,
2013-05-09 21:12:00,58.7,55.5,29.88,WSW,257,3.0,4.0,89,0.00,,,0.00,WeatherCatV1.15B25,2013-05-10 01:12:00,
2013-05-09 21:17:00,58.6,55.7,29.88,WSW,257,3.0,5.0,90,0.00,,,0.00,WeatherCatV1.15B25,2013-05-10 01:17:00,
2013-05-09 21:22:00,58.5,55.3,29.89,WSW,257,0.0,0.0,89,0.00,,,0.00,WeatherCatV1.15B25,2013-05-10 01:22:00,
2013-05-09 21:27:00,58.4,54.9,29.89,WSW,257,0.0,0.0,88,0.00,,,0.00,WeatherCatV1.15B25,2013-05-10 01:27:00,
2013-05-09 21:32:00,58.4,55.2,29.89,WSW,257,0.0,0.0,89,0.00,,,0.00,WeatherCatV1.15B25,2013-05-10 01:32:00,
2013-05-09 21:37:00,58.2,54.7,29.88,WSW,257,3.0,4.0,88,0.00,,,0.00,WeatherCatV1.15B25,2013-05-10 01:37:00,
2013-05-09 21:42:00,58.1,54.9,29.89,WSW,257,3.0,4.0,89,0.00,,,0.00,WeatherCatV1.15B25,2013-05-10 01:42:00,
2013-05-09 21:47:00,57.9,54.7,29.89,WSW,257,0.0,0.0,89,0.00,,,0.00,WeatherCatV1.15B25,2013-05-10 01:47:00,
2013-05-09 21:52:00,57.8,54.6,29.88,WSW,257,0.0,0.0,89,0.00,,,0.00,WeatherCatV1.15B25,2013-05-10 01:52:00,
2013-05-09 21:57:00,57.7,54.5,29.89,WSW,257,0.0,0.0,89,0.00,,,0.00,WeatherCatV1.15B25,2013-05-10 01:57:00,
2013-05-09 22:02:00,57.5,54.3,29.89,WSW,257,3.0,4.0,89,0.00,,,0.00,WeatherCatV1.15B25,2013-05-10 02:02:00,
2013-05-09 22:07:00,57.3,54.4,29.89,WSW,257,0.0,0.0,90,0.00,,,0.00,WeatherCatV1.15B25,2013-05-10 02:07:00,
2013-05-09 22:12:00,57.3,54.7,29.89,WSW,257,0.0,0.0,91,0.00,,,0.00,WeatherCatV1.15B25,2013-05-10 02:12:00,
2013-05-09 22:17:00,57.2,54.6,29.89,WSW,257,0.0,0.0,91,0.00,,,0.00,WeatherCatV1.15B25,2013-05-10 02:17:00,
2013-05-09 22:22:00,57.1,54.5,29.89,WSW,257,0.0,0.0,91,0.00,,,0.00,WeatherCatV1.15B25,2013-05-10 02:22:00,
2013-05-09 22:27:00,57.0,54.4,29.89,WSW,257,0.0,0.0,91,0.00,,,0.00,WeatherCatV1.15B25,2013-05-10 02:27:00,
2013-05-09 22:32:00,57.0,54.4,29.89,WSW,257,0.0,0.0,91,0.00,,,0.00,WeatherCatV1.15B25,2013-05-10 02:32:00,
2013-05-09 22:37:00,56.8,54.5,29.89,WSW,257,0.0,0.0,92,0.00,,,0.00,WeatherCatV1.15B25,2013-05-10 02:37:00,
2013-05-09 22:42:00,56.7,54.4,29.88,WSW,257,0.0,0.0,92,0.00,,,0.00,WeatherCatV1.15B25,2013-05-10 02:42:00,
2013-05-09 22:47:00,56.5,54.2,29.89,WSW,257,0.0,0.0,92,0.00,,,0.00,WeatherCatV1.15B25,2013-05-10 02:47:00,
2013-05-09 22:52:00,56.4,54.1,29.88,WSW,257,0.0,0.0,92,0.00,,,0.00,WeatherCatV1.15B25,2013-05-10 02:52:00,
2013-05-09 22:57:00,56.4,54.1,29.88,WSW,257,0.0,0.0,92,0.00,,,0.00,WeatherCatV1.15B25,2013-05-10 02:57:00,
2013-05-09 23:02:00,56.4,54.1,29.89,WSW,257,0.0,0.0,92,0.00,,,0.00,WeatherCatV1.15B25,2013-05-10 03:02:00,
2013-05-09 23:07:00,56.4,54.1,29.89,WSW,257,0.0,0.0,92,0.00,,,0.00,WeatherCatV1.15B25,2013-05-10 03:07:00,
2013-05-09 23:12:00,56.4,54.1,29.89,WSW,257,0.0,0.0,92,0.00,,,0.00,WeatherCatV1.15B25,2013-05-10 03:12:00,
2013-05-09 23:17:00,56.4,54.4,29.89,WSW,257,0.0,0.0,93,0.00,,,0.00,WeatherCatV1.15B25,2013-05-10 03:17:00,
2013-05-09 23:22:00,56.4,54.1,29.89,WSW,257,0.0,0.0,92,0.00,,,0.00,WeatherCatV1.15B25,2013-05-10 03:22:00,
2013-05-09 23:27:00,56.4,54.1,29.89,WSW,257,0.0,0.0,92,0.00,,,0.00,WeatherCatV1.15B25,2013-05-10 03:27:00,
2013-05-09 23:32:00,56.4,54.1,29.89,WSW,257,0.0,0.0,92,0.00,,,0.00,WeatherCatV1.15B25,2013-05-10 03:32:00,
2013-05-09 23:37:00,56.4,54.4,29.89,WSW,257,0.0,0.0,93,0.00,,,0.00,WeatherCatV1.15B25,2013-05-10 03:37:00,
2013-05-09 23:42:00,56.4,54.4,29.89,WSW,257,0.0,0.0,93,0.00,,,0.00,WeatherCatV1.15B25,2013-05-10 03:42:00,
2013-05-09 23:47:00,56.4,54.1,29.89,WSW,257,0.0,0.0,92,0.00,,,0.00,WeatherCatV1.15B25,2013-05-10 03:47:00,
2013-05-09 23:52:00,56.4,54.4,29.89,WSW,257,0.0,0.0,93,0.00,,,0.00,WeatherCatV1.15B25,2013-05-10 03:52:00,
2013-05-09 23:57:00,56.4,54.7,29.89,WSW,257,3.0,4.0,94,0.00,,,0.00,WeatherCatV1.15B25,2013-05-10 03:57:00,